Time,TemperatureF,DewpointF,PressureIn,WindDirection,WindDirectionDegrees,WindSpeedMPH,WindSpeedGustMPH,Humidity,HourlyPrecipIn,Conditions,Clouds,dailyrainin,SoftwareType,DateUTC
2013-04-18 00:08:00,64.5,59.0,29.98,ENE,62,0.0,-999.0,82,-99.99,,,0.00,weatherlink.com 1.10,2013-04-18 04:08:00,
2013-04-18 00:23:00,64.8,59.0,29.97,NNE,26,0.0,-999.0,80,-99.99,,,0.01,weatherlink.com 1.10,2013-04-18 04:23:00,
2013-04-18 00:38:00,64.4,58.0,29.97,North,10,1.0,-999.0,80,-99.99,,,0.01,weatherlink.com 1.10,2013-04-18 04:38:00,
2013-04-18 00:53:00,64.3,58.0,29.97,NE,39,0.0,-999.0,80,-99.99,,,0.02,weatherlink.com 1.10,2013-04-18 04:53:00,
2013-04-18 01:08:00,64.2,58.0,29.97,NE,39,0.0,-999.0,81,-99.99,,,0.03,weatherlink.com 1.10,2013-04-18 05:08:00,
2013-04-18 01:23:00,65.2,59.0,29.97,North,5,0.0,-999.0,80,-99.99,,,0.03,weatherlink.com 1.10,2013-04-18 05:23:00,
2013-04-18 01:38:00,65.5,59.0,29.95,NE,43,0.0,-999.0,80,-99.99,,,0.03,weatherlink.com 1.10,2013-04-18 05:38:00,
2013-04-18 01:53:00,65.8,60.0,29.95,East,84,0.0,-999.0,80,-99.99,,,0.04,weatherlink.com 1.10,2013-04-18 05:53:00,
2013-04-18 02:08:00,65.9,60.0,29.95,ESE,108,0.0,-999.0,80,-99.99,,,0.05,weatherlink.com 1.10,2013-04-18 06:08:00,
2013-04-18 02:23:00,65.9,60.0,29.95,SSW,212,0.0,-999.0,80,-99.99,,,0.05,weatherlink.com 1.10,2013-04-18 06:23:00,
2013-04-18 02:38:00,65.4,59.0,29.94,SW,233,0.0,-999.0,81,-99.99,,,0.05,weatherlink.com 1.10,2013-04-18 06:38:00,
2013-04-18 02:53:00,65.4,59.0,29.94,NNE,29,1.0,-999.0,81,-99.99,,,0.06,weatherlink.com 1.10,2013-04-18 06:53:00,
2013-04-18 03:08:00,65.4,59.0,29.94,West,273,1.0,-999.0,81,-99.99,,,0.06,weatherlink.com 1.10,2013-04-18 07:08:00,
2013-04-18 03:23:00,65.3,60.0,29.94,West,277,0.0,-999.0,82,-99.99,,,0.07,weatherlink.com 1.10,2013-04-18 07:23:00,
2013-04-18 03:38:00,64.8,60.0,29.93,NE,40,0.0,-999.0,83,-99.99,,,0.07,weatherlink.com 1.10,2013-04-18 07:38:00,
2013-04-18 03:53:00,64.4,60.0,29.93,NE,56,0.0,-999.0,84,-99.99,,,0.07,weatherlink.com 1.10,2013-04-18 07:53:00,
2013-04-18 04:08:00,63.6,59.0,29.94,NE,56,0.0,-999.0,86,-99.99,,,0.07,weatherlink.com 1.10,2013-04-18 08:08:00,
2013-04-18 04:23:00,62.6,59.0,29.93,NE,56,0.0,-999.0,88,-99.99,,,0.08,weatherlink.com 1.10,2013-04-18 08:23:00,
2013-04-18 04:38:00,61.9,59.0,29.94,NNE,31,0.0,-999.0,90,-99.99,,,0.08,weatherlink.com 1.10,2013-04-18 08:38:00,
2013-04-18 04:53:00,61.7,59.0,29.93,NNE,28,0.0,-999.0,91,-99.99,,,0.08,weatherlink.com 1.10,2013-04-18 08:53:00,
2013-04-18 05:08:00,62.3,59.0,29.93,NNE,28,0.0,-999.0,90,-99.99,,,0.09,weatherlink.com 1.10,2013-04-18 09:08:00,
2013-04-18 05:23:00,61.7,59.0,29.94,NNE,28,0.0,-999.0,91,-99.99,,,0.09,weatherlink.com 1.10,2013-04-18 09:23:00,
2013-04-18 05:38:00,61.2,59.0,29.94,NNE,28,0.0,-999.0,92,-99.99,,,0.09,weatherlink.com 1.10,2013-04-18 09:38:00,
2013-04-18 05:53:00,60.6,58.0,29.94,NNE,28,0.0,-999.0,92,-99.99,,,0.09,weatherlink.com 1.10,2013-04-18 09:53:00,
2013-04-18 06:08:00,60.3,58.0,29.94,NNE,28,0.0,-999.0,93,-99.99,,,0.09,weatherlink.com 1.10,2013-04-18 10:08:00,
2013-04-18 06:23:00,60.1,58.0,29.94,NNE,28,0.0,-999.0,94,-99.99,,,0.10,weatherlink.com 1.10,2013-04-18 10:23:00,
2013-04-18 06:38:00,60.0,58.0,29.94,NNW,337,0.0,-999.0,94,-99.99,,,0.10,weatherlink.com 1.10,2013-04-18 10:38:00,
2013-04-18 06:53:00,59.9,58.0,29.93,NNW,337,0.0,-999.0,94,-99.99,,,0.10,weatherlink.com 1.10,2013-04-18 10:53:00,
2013-04-18 07:08:00,59.8,58.0,29.94,NNW,338,0.0,-999.0,95,-99.99,,,0.10,weatherlink.com 1.10,2013-04-18 11:08:00,
2013-04-18 07:23:00,59.8,58.0,29.94,NE,35,0.0,-999.0,95,-99.99,,,0.10,weatherlink.com 1.10,2013-04-18 11:23:00,
2013-04-18 07:38:00,59.7,58.0,29.94,NW,322,0.0,-999.0,95,-99.99,,,0.11,weatherlink.com 1.10,2013-04-18 11:38:00,
2013-04-18 07:53:00,59.9,59.0,29.95,West,270,1.0,-999.0,96,-99.99,,,0.11,weatherlink.com 1.10,2013-04-18 11:53:00,
2013-04-18 08:08:00,60.2,59.0,29.96,NNE,16,0.0,-999.0,95,-99.99,,,0.11,weatherlink.com 1.10,2013-04-18 12:08:00,
2013-04-18 08:23:00,60.2,59.0,29.96,NNW,327,0.0,-999.0,95,-99.99,,,0.11,weatherlink.com 1.10,2013-04-18 12:23:00,
2013-04-18 08:38:00,60.3,59.0,29.96,ENE,58,1.0,-999.0,95,-99.99,,,0.11,weatherlink.com 1.10,2013-04-18 12:38:00,
2013-04-18 08:53:00,60.3,59.0,29.96,NNE,24,0.0,-999.0,95,-99.99,,,0.11,weatherlink.com 1.10,2013-04-18 12:53:00,
2013-04-18 09:08:00,60.6,59.0,29.97,NNW,345,0.0,-999.0,94,-99.99,,,0.11,weatherlink.com 1.10,2013-04-18 13:08:00,
2013-04-18 09:23:00,61.0,59.0,29.97,North,10,0.0,-999.0,94,-99.99,,,0.11,weatherlink.com 1.10,2013-04-18 13:23:00,
2013-04-18 09:38:00,61.9,60.0,29.97,NNW,335,0.0,-999.0,93,-99.99,,,0.12,weatherlink.com 1.10,2013-04-18 13:38:00,
2013-04-18 09:53:00,62.7,60.0,29.97,North,3,0.0,-999.0,91,-99.99,,,0.12,weatherlink.com 1.10,2013-04-18 13:53:00,
2013-04-18 10:08:00,63.2,60.0,29.97,NNW,346,0.0,-999.0,89,-99.99,,,0.12,weatherlink.com 1.10,2013-04-18 14:08:00,
2013-04-18 10:23:00,63.4,60.0,29.97,NW,309,0.0,-999.0,87,-99.99,,,0.12,weatherlink.com 1.10,2013-04-18 14:23:00,
2013-04-18 10:38:00,63.6,60.0,29.98,WNW,289,0.0,-999.0,87,-99.99,,,0.12,weatherlink.com 1.10,2013-04-18 14:38:00,
2013-04-18 10:53:00,64.8,60.0,29.97,NE,50,0.0,-999.0,84,-99.99,,,0.12,weatherlink.com 1.10,2013-04-18 14:53:00,
2013-04-18 11:08:00,65.8,60.0,29.98,WNW,283,0.0,-999.0,81,-99.99,,,0.12,weatherlink.com 1.10,2013-04-18 15:08:00,
2013-04-18 11:23:00,66.4,61.0,29.96,NNE,28,0.0,-999.0,82,-99.99,,,0.13,weatherlink.com 1.10,2013-04-18 15:23:00,
2013-04-18 11:38:00,67.5,61.0,29.96,WNW,291,0.0,-999.0,80,-99.99,,,0.13,weatherlink.com 1.10,2013-04-18 15:38:00,
2013-04-18 11:53:00,68.5,61.0,29.95,NNE,18,0.0,-999.0,76,-99.99,,,0.13,weatherlink.com 1.10,2013-04-18 15:53:00,
2013-04-18 12:08:00,69.2,60.0,29.95,NNE,12,1.0,-999.0,73,-99.99,,,0.13,weatherlink.com 1.10,2013-04-18 16:08:00,
2013-04-18 12:23:00,70.7,59.0,29.95,NW,318,0.0,-999.0,67,-99.99,,,0.13,weatherlink.com 1.10,2013-04-18 16:23:00,
2013-04-18 12:38:00,71.1,60.0,29.94,NW,318,3.0,-999.0,68,-99.99,,,0.13,weatherlink.com 1.10,2013-04-18 16:38:00,
2013-04-18 12:53:00,72.4,59.0,29.93,NNW,347,1.0,-999.0,64,-99.99,,,0.14,weatherlink.com 1.10,2013-04-18 16:53:00,
2013-04-18 13:08:00,73.0,61.0,30.04,NE,54,0.0,-999.0,66,-99.99,,,0.14,weatherlink.com 1.10,2013-04-18 17:08:00,
2013-04-18 13:23:00,72.7,59.0,30.03,North,351,2.0,-999.0,63,-99.99,,,0.14,weatherlink.com 1.10,2013-04-18 17:23:00,
2013-04-18 13:38:00,72.7,60.0,30.03,NNE,13,0.0,-999.0,65,-99.99,,,0.14,weatherlink.com 1.10,2013-04-18 17:38:00,
2013-04-18 13:53:00,74.0,60.0,30.02,NW,306,2.0,-999.0,61,-99.99,,,0.14,weatherlink.com 1.10,2013-04-18 17:53:00,
2013-04-18 14:08:00,73.8,60.0,30.02,ENE,72,2.0,-999.0,62,-99.99,,,0.14,weatherlink.com 1.10,2013-04-18 18:08:00,
2013-04-18 14:23:00,73.5,58.0,30.01,WNW,287,0.0,-999.0,59,-99.99,,,0.14,weatherlink.com 1.10,2013-04-18 18:23:00,
2013-04-18 14:38:00,75.2,60.0,30.01,WSW,254,1.0,-999.0,59,-99.99,,,0.14,weatherlink.com 1.10,2013-04-18 18:38:00,
2013-04-18 14:53:00,74.0,58.0,30.00,NNE,13,0.0,-999.0,57,-99.99,,,0.14,weatherlink.com 1.10,2013-04-18 18:53:00,
2013-04-18 15:08:00,75.5,59.0,30.00,West,270,0.0,-999.0,57,-99.99,,,0.14,weatherlink.com 1.10,2013-04-18 19:08:00,
2013-04-18 15:23:00,74.6,57.0,30.00,WSW,258,0.0,-999.0,55,-99.99,,,0.14,weatherlink.com 1.10,2013-04-18 19:23:00,
2013-04-18 15:38:00,75.3,57.0,30.00,NE,52,2.0,-999.0,53,-99.99,,,0.14,weatherlink.com 1.10,2013-04-18 19:38:00,
2013-04-18 15:53:00,76.9,58.0,29.99,NE,48,0.0,-999.0,53,-99.99,,,0.14,weatherlink.com 1.10,2013-04-18 19:53:00,
2013-04-18 16:08:00,77.3,57.0,29.98,North,360,2.0,-999.0,49,-99.99,,,0.14,weatherlink.com 1.10,2013-04-18 20:08:00,
2013-04-18 16:23:00,78.2,59.0,29.97,NE,43,2.0,-999.0,51,-99.99,,,0.14,weatherlink.com 1.10,2013-04-18 20:23:00,
2013-04-18 16:38:00,78.8,58.0,29.96,South,173,0.0,-999.0,49,-99.99,,,0.14,weatherlink.com 1.10,2013-04-18 20:38:00,
2013-04-18 16:53:00,77.0,57.0,29.95,North,356,1.0,-999.0,50,-99.99,,,0.14,weatherlink.com 1.10,2013-04-18 20:53:00,
2013-04-18 17:08:00,77.1,57.0,29.95,NNE,29,2.0,-999.0,50,-99.99,,,0.14,weatherlink.com 1.10,2013-04-18 21:08:00,
2013-04-18 17:23:00,75.7,56.0,29.95,West,274,3.0,-999.0,50,-99.99,,,0.14,weatherlink.com 1.10,2013-04-18 21:23:00,
2013-04-18 17:38:00,77.6,58.0,29.94,NNW,336,0.0,-999.0,51,-99.99,,,0.14,weatherlink.com 1.10,2013-04-18 21:38:00,
2013-04-18 17:53:00,76.7,57.0,29.94,North,357,1.0,-999.0,50,-99.99,,,0.14,weatherlink.com 1.10,2013-04-18 21:53:00,
2013-04-18 18:08:00,74.9,56.0,29.94,NNE,33,3.0,-999.0,53,-99.99,,,0.14,weatherlink.com 1.10,2013-04-18 22:08:00,
2013-04-18 18:23:00,76.5,56.0,29.94,WNW,287,1.0,-999.0,50,-99.99,,,0.14,weatherlink.com 1.10,2013-04-18 22:23:00,
2013-04-18 18:38:00,74.5,56.0,29.93,NW,316,1.0,-999.0,53,-99.99,,,0.14,weatherlink.com 1.10,2013-04-18 22:38:00,
2013-04-18 18:53:00,73.9,56.0,29.92,North,358,0.0,-999.0,54,-99.99,,,0.14,weatherlink.com 1.10,2013-04-18 22:53:00,
2013-04-18 19:08:00,73.6,56.0,29.92,North,358,0.0,-999.0,55,-99.99,,,0.14,weatherlink.com 1.10,2013-04-18 23:08:00,
2013-04-18 19:23:00,73.3,57.0,29.92,SSW,195,0.0,-999.0,56,-99.99,,,0.14,weatherlink.com 1.10,2013-04-18 23:23:00,
2013-04-18 19:38:00,72.9,56.0,29.91,NW,319,1.0,-999.0,55,-99.99,,,0.14,weatherlink.com 1.10,2013-04-18 23:38:00,
2013-04-18 19:53:00,72.6,56.0,29.91,SE,137,0.0,-999.0,56,-99.99,,,0.14,weatherlink.com 1.10,2013-04-18 23:53:00,
2013-04-18 20:08:00,72.1,56.0,29.91,North,358,0.0,-999.0,57,-99.99,,,0.14,weatherlink.com 1.10,2013-04-19 00:08:00,
2013-04-18 20:23:00,72.2,56.0,29.91,West,265,0.0,-999.0,57,-99.99,,,0.14,weatherlink.com 1.10,2013-04-19 00:23:00,
2013-04-18 20:38:00,72.0,56.0,29.91,NNE,16,0.0,-999.0,58,-99.99,,,0.14,weatherlink.com 1.10,2013-04-19 00:38:00,
2013-04-18 20:53:00,71.6,56.0,29.91,SW,236,0.0,-999.0,59,-99.99,,,0.14,weatherlink.com 1.10,2013-04-19 00:53:00,
2013-04-18 21:08:00,71.2,56.0,29.92,SSW,193,0.0,-999.0,60,-99.99,,,0.14,weatherlink.com 1.10,2013-04-19 01:08:00,
2013-04-18 21:23:00,71.1,56.0,29.92,SE,135,1.0,-999.0,60,-99.99,,,0.14,weatherlink.com 1.10,2013-04-19 01:23:00,
2013-04-18 21:38:00,71.2,56.0,29.91,ENE,77,0.0,-999.0,60,-99.99,,,0.14,weatherlink.com 1.10,2013-04-19 01:38:00,
2013-04-18 21:53:00,71.0,57.0,29.90,ENE,57,1.0,-999.0,61,-99.99,,,0.14,weatherlink.com 1.10,2013-04-19 01:53:00,
2013-04-18 22:08:00,70.5,57.0,29.89,ENE,67,0.0,-999.0,62,-99.99,,,0.14,weatherlink.com 1.10,2013-04-19 02:08:00,
2013-04-18 22:23:00,69.9,57.0,29.88,NNE,15,0.0,-999.0,63,-99.99,,,0.14,weatherlink.com 1.10,2013-04-19 02:23:00,
2013-04-18 22:38:00,69.3,57.0,29.88,NE,45,0.0,-999.0,65,-99.99,,,0.14,weatherlink.com 1.10,2013-04-19 02:38:00,
2013-04-18 22:53:00,68.6,57.0,29.87,West,260,0.0,-999.0,67,-99.99,,,0.14,weatherlink.com 1.10,2013-04-19 02:53:00,
2013-04-18 23:08:00,68.5,57.0,29.86,East,83,0.0,-999.0,67,-99.99,,,0.14,weatherlink.com 1.10,2013-04-19 03:08:00,
2013-04-18 23:23:00,68.5,57.0,29.86,WSW,250,0.0,-999.0,68,-99.99,,,0.14,weatherlink.com 1.10,2013-04-19 03:23:00,
2013-04-18 23:38:00,68.5,57.0,29.85,NE,50,0.0,-999.0,68,-99.99,,,0.14,weatherlink.com 1.10,2013-04-19 03:38:00,
2013-04-18 23:53:00,68.6,58.0,29.85,West,273,0.0,-999.0,69,-99.99,,,0.14,weatherlink.com 1.10,2013-04-19 03:53:00,